Regional Weather Roundup
Issued by NWS

Home | Current Version | Previous Version | Text Only | Print | Product List | Glossary Off
Versions: 1 2 3 4 5 6 7 8 9 10 11 12 13 14 15 16 17 18 19 20 21 22 23 24 25 26 27 28 29 30 31 32 33 34 35 36 37 38 39 40 41 42 43 44 45 46 47 48 49 50

000
ASUS43 KLOT 290608
RWRIL

ILLINOIS REGIONAL WEATHER ROUNDUP
NATIONAL WEATHER SERVICE CHICAGO/ROMEOVILLE IL
100 AM CDT SUN MAR 29 2015

NOTE: "FAIR" INDICATES FEW OR NO CLOUDS BELOW 12,000 FEET WITH NO
SIGNIFICANT WEATHER AND/OR OBSTRUCTIONS TO VISIBILITY.

* THESE STATIONS ARE NOT UNDER NWS QUALITY CONTROL. THEY ALSO MAY NOT
  REPORT WEATHER SUCH AS PRECIPITATION OR FOG.

ILZ001-002-007-009-015-016-024-290700-
NORTHWEST ILLINOIS

CITY           SKY/WX    TMP DP  RH WIND       PRES   REMARKS
MOLINE         CLEAR     30  17  58 S13       30.18F WCI  20
6HR MIN TEMP:  29; 6HR MAX TEMP:  39;

STERLING*      CLEAR     28  18  64 S3        30.22F
SAVANNA*       CLEAR     30  18  61 S9        30.19F WCI  22
$$

ILZ003-004-008-010-011-017-018-290700-
NORTH CENTRAL ILLINOIS

CITY           SKY/WX    TMP DP  RH WIND       PRES   REMARKS
ROCKFORD       MOCLDY    30  17  58 S12       30.23F WCI  20
6HR MIN TEMP:  27; 6HR MAX TEMP:  36;

FREEPORT*      PTCLDY    26  19  74 S8        30.20F WCI  17
ROCHELLE*      CLEAR     27  20  75 S8        30.24F WCI  18
DE KALB*       PTCLDY    23  16  75 S7        30.24F WCI  14
PERU*          CLEAR     30  18  60 S12       30.26F WCI  21
$$

ILZ005-006-012>014-019>023-290700-
NORTHEAST ILLINOIS

CITY           SKY/WX    TMP DP  RH WIND       PRES   REMARKS
CHICAGO-OHARE  PTCLDY    23  14  68 S7        30.25F WCI  15
6HR MIN TEMP:  22; 6HR MAX TEMP:  32;

CHICAGO-MIDWAY CLEAR     28  12  51 S8        30.28S WCI  20
6HR MIN TEMP:  28; 6HR MAX TEMP:  33;

AURORA         CLEAR     24  14  65 S6        30.26S WCI  17
6HR MIN TEMP:  24; 6HR MAX TEMP:  37;

LANSING*       CLEAR     23  12  63 S5        30.29S WCI  17
JOLIET*        CLEAR     26  16  65 SE3       30.28S
WAUKEGAN       CLEAR     25  13  60 S8        30.24F WCI  16
6HR MIN TEMP:  22; 6HR MAX TEMP:  28;

DUPAGE AIRPORT CLEAR     25  13  60 S8        30.24F WCI  16
6HR MIN TEMP:  24; 6HR MAX TEMP:  35;

KANKAKEE*      CLEAR     28  15  58 SE6       30.29S WCI  21
WHEELING       CLEAR     24  13  62 S7        30.27F WCI  16
6HR MIN TEMP:  23; 6HR MAX TEMP:  31;

MORRIS*        CLEAR     26  16  66 S8        30.26S WCI  17
ROMEOVILLE*    CLEAR     24  15  69 S8        30.27S WCI  15
NORTHERLY ISL    N/A     29  12  49 S5          N/A  WCI  24
$$

LMZ740>746-290700-
SOUTHERN LAKE MICHIGAN

STATION/POSITION SKY/WX   TEMP    WIND        PRES    VSBY  WAVE
                          AIR SEA DIR/SP/G                  HT/PER
                          (F)     (DEG/KT/KT) (MB)    (MI)  (FT/S)
HARRISON CRIB              30     180/ 16/ 17   N/A
BURNHAM HARBOR             29     190/  4/ 11   N/A
CALUMET HARBOR             27     160/  6/  7 1024.1F
BURNS HARBOR               26     140/  8/ 11 1026.1F
MICHIGAN CITY              24     120/ 10/ 12   N/A
$$

ILZ025>027-034>036-040-047-049-050-058-095>099-290700-
WEST-CENTRAL ILLINOIS

CITY           SKY/WX    TMP DP  RH WIND       PRES   REMARKS
QUINCY         CLEAR     33  20  58 SE10      30.20F WCI  25
GALESBURG*     CLEAR     29  21  70 SE8       30.20F WCI  21
MACOMB*        CLEAR     30  23  74 SE10      30.24F WCI  21
JACKSONVILLE*  CLEAR     34  22  61 SE10      30.25F WCI  26
PITTSFIELD*    CLEAR     34  23  64 SE9       30.24F WCI  27
$$

ILZ028>032-037-038-041>044-048-051>054-059>061-290700-
CENTRAL ILLINOIS

CITY           SKY/WX    TMP DP  RH WIND       PRES   REMARKS
PONTIAC        CLEAR     28  20  69 S7        30.29S WCI  21
BLOOMINGTON    CLEAR     26  20  78 S8        30.27F WCI  18
DECATUR        CLEAR     28  19  69 S7        30.29F WCI  21
PEORIA         CLEAR     32  19  58 S7        30.25F WCI  26
6HR MIN TEMP:  31; 6HR MAX TEMP:  40;

LACON*         CLEAR     28  17  63 SE7       30.24F WCI  21
LINCOLN*       CLEAR     31  23  74 S6        30.28F WCI  25
SPRINGFIELD    CLEAR     33  21  61 S12       30.27F WCI  24
6HR MIN TEMP:  31; 6HR MAX TEMP:  39;

TAYLORVILLE    CLEAR     32  21  64 SE10      30.29S WCI  24
$$

ILZ033-039-045-046-055>057-062-063-290700-
EAST-CENTRAL ILLINOIS

CITY           SKY/WX    TMP DP  RH WIND       PRES   REMARKS
CHAMPAIGN      CLEAR     28  18  66 S7        30.29F WCI  21
DANVILLE*      CLEAR     28  19  67 SE8       30.27F WCI  20
RANTOUL*       CLEAR     28  21  74 S5        30.29F WCI  23
MATTOON        CLEAR     29  18  63 S6        30.29F WCI  23
PARIS*         CLEAR     29  22  74 CALM      30.32S
$$

ILZ079-100>102-290700-
SOUTHWEST ILLINOIS

CITY           SKY/WX    TMP DP  RH WIND       PRES   REMARKS
ALTON          CLEAR     33  19  57 SE8       30.28F WCI  25
BELLEVILLE     CLEAR     33  21  61 SE10      30.28F WCI  25
CAHOKIA*       CLEAR     35  20  54 S8        30.28F WCI  29
SPARTA*        CLEAR     32  21  62 SE8       30.31F WCI  25
$$

ILZ064>066-069>071-074>076-080>082-084>086-088>090-092>094-290700-
SOUTH-CENTRAL ILLINOIS

CITY           SKY/WX    TMP DP  RH WIND       PRES   REMARKS
CARBONDALE     CLEAR     31  17  56 SE3       30.32F
6HR MIN TEMP:  31; 6HR MAX TEMP:  41;

CAIRO*         CLEAR     36  22  58 E7        30.33S WCI  30
EFFINGHAM*     CLEAR     28  19  68 SE5       30.33S WCI  23
MARION         CLEAR     32  19  59 SE5       30.33S WCI  27
MT. VERNON     CLEAR     30  18  59 CALM      30.32S
CENTRALIA*     CLEAR     32  19  60 SE8       30.31F WCI  24
SALEM*         CLEAR     33  19  55 SE3       30.32S
METROPOLIS*    CLEAR     29  22  73 CALM      30.33S
$$

ILZ067-068-072-073-078-083-087-091-290700-
SOUTHEAST ILLINOIS

CITY           SKY/WX    TMP DP  RH WIND       PRES   REMARKS
LAWRENCEVILLE  CLEAR     28  25  88 CALM      30.34F
FLORA*         CLEAR     28  24  82 SE3       30.33F
FAIRFIELD*     CLEAR     30  21  68 CALM      30.32F
HARRISBURG*    CLEAR     29  22  76 CALM      30.35S
ROBINSON*      CLEAR     24  22  91 S3        30.34F
CARMI*         CLEAR     27  22  80 E3        30.34S
$$

ABBREVIATIONS USED IN REMARKS
   TC - TEMPERATURE IN CELSIUS
  WCI - WIND CHILL INDEX
   HX - HEAT INDEX
  VSB - VISIBILITY
$$




USA.gov is the U.S. government's official web portal to all federal, state and local government web resources and services.